Regional Weather Roundup
Issued by NWS

Home | Current Version | Previous Version | Graphics & Text | Print | Product List | Glossary On
Versions: 1 2 3 4 5 6 7 8 9 10 11 12 13 14 15 16 17 18 19 20 21 22 23 24 25 26 27 28 29 30 31 32 33 34 35 36 37 38 39 40 41 42 43 44 45 46 47 48 49 50
000
ASUS43 KDTX 230210
RWRMI
MICHIGAN HOURLY REGIONAL WEATHER ROUNDUP
NATIONAL WEATHER SERVICE DETROIT/PONTIAC MI
ISSUED BY NATIONAL WEATHER SERVICE GRAND RAPIDS MI
1000 PM EDT TUE MAY 22 2018

NOTE: "FAIR" INDICATES FEW OR NO CLOUDS BELOW 12,000 FEET WITH NO
SIGNIFICANT WEATHER AND/OR OBSTRUCTION TO VISIBILITY.

MIZ047>049-052>055-059>063-066>070-074>076-081>083-230300-
SOUTHEAST LOWER MICHIGAN

CITY           SKY/WX    TMP DP  RH WIND       PRES   REMARKS
ADRIAN         CLOUDY    63  55  75 N10       30.04R
ALMA           FAIR      57  56  97 CALM      30.04R
ANN ARBOR      FAIR      59  55  87 NW5       30.02R
BAD AXE        FAIR      50  49  95 CALM      30.03S
DETROIT CITY   FAIR      60  52  74 N6        30.02R
DETROIT        MOCLDY    62  52  69 N12       30.02R
FLINT          FAIR      56  54  93 CALM      30.04R
GROSSE ILE     CLOUDY    62  55  78 N10       30.01R
HILLSDALE      CLOUDY    61  54  77 NW6       30.04R
HOWELL         FAIR      56  55  96 NW5       30.03S

CITY           SKY/WX    TMP DP  RH WIND       PRES   REMARKS
JACKSON        FAIR      59  56  89 CALM      30.04R
LANSING        FAIR      55  54  96 CALM      30.04S
MASON          FAIR      57  55  93 CALM      30.05R
MONROE         CLOUDY    63  55  76 NW15      30.02R
MT. CLEMENS    MOCLDY    59  57  95 NW9       30.00R
PONTIAC        FAIR      57  54  89 NW5       30.01S
PORT HOPE        N/A     49  46  90 W3        30.01R
PORT HURON     CLOUDY    52  46  82 N5        30.02R
TRI CITIES     FAIR      60  55  83 S5        30.04R
YPSILANTI      FAIR      62  55  77 N7        30.02R
$$
MIZ043>046-050>051-056>058-064>065-071>073-077>080-230300-
SOUTHWEST LOWER MICHIGAN

CITY           SKY/WX    TMP DP  RH WIND       PRES   REMARKS
BATTLE CREEK   FAIR      58  54  86 NW6       30.06R
BENTON HARBOR  FOG       48  47  96 CALM      30.08R VSB 1/2
BIG RAPIDS     FAIR      59  52  77 W5        30.03S
COLDWATER      CLOUDY    61  55  79 NW5       30.05R
HOLLAND        MOCLDY    48  47  96 W5        30.07R
GRAND RAPIDS   FAIR      55  52  89 SW8       30.05R
KALAMAZOO      FAIR      56  52  86 W3        30.06R
MARSHALL       FAIR      58  57  95 CALM      30.05R
MOUNT PLEASANT FAIR      61  56  85 CALM      30.02S
MUSKEGON       FAIR      48  45  89 SW7       30.06R
STURGIS        CLOUDY    59  55  86 NW5       30.06R
$$
MIZ016>042-230300-
NORTHERN LOWER MICHIGAN

CITY           SKY/WX    TMP DP  RH WIND       PRES   REMARKS
ALPENA         FAIR      57  51  80 CALM      30.01R
BEAVER ISLAND  FAIR      47  45  90 W6        30.04R
BELLAIRE       FAIR      52  48  87 CALM      30.03R
CADILLAC       FAIR      56  48  75 NW5       30.04R
CHARLEVOIX     FAIR      53  46  76 CALM      30.07R
GAYLORD        FAIR      60  46  59 NW5       30.03R
HOUGHTON LAKE  FAIR      58  48  69 CALM      30.03R
MANISTEE       FAIR      50  48  93 NW3       30.04R
OSCODA         FAIR      51  44  77 SW5       30.01S
PELLSTON       FAIR      56  45  66 CALM      30.02S
TRAVERSE CITY  FAIR      54  46  74 CALM      30.02R
LUDINGTON      FAIR      47  47  99 CALM      30.05R
$$
MIZ007>008-015-230300-
EASTERN UPPER MICHIGAN

CITY           SKY/WX    TMP DP  RH WIND       PRES   REMARKS
KINROSS        FAIR      54  45  71 N3        30.02R
MACKINAC ISLAN FAIR      55  47  75 W7        30.01S
NEWBERRY       FAIR      56  47  72 CALM      30.01R
S. S. MARIE    FAIR      50  43  77 SW5       30.00R
$$
MIZ004>006-011>014-085-230300-
CENTRAL UPPER MICHIGAN

CITY           SKY/WX    TMP DP  RH WIND       PRES   REMARKS
MANISTIQUE     FAIR      49  48  94 SW6       30.02R
ESCANABA       FAIR      54  50  86 CALM      30.03R
MENOMINEE      FAIR      65  46  50 SW9       30.01R
SAWYER-GWINN   CLEAR     64  36  34 S3        30.04R
$$
MIZ001>003-009>011-084-230300-
WESTERN UPPER MICHIGAN

CITY           SKY/WX    TMP DP  RH WIND       PRES   REMARKS
IRON MOUNTAIN  FAIR      69  48  47 NE5       30.00R
HOUGHTON       FAIR      59  36  42 NW8       30.01R
COPPER HARBOR    N/A     56  48  74 W3        29.99R
IRONWOOD       FAIR      61  53  75 CALM      30.04R
$$

ABBREVIATIONS USED IN REMARKS
   TC - TEMPERATURE IN CELSIUS
  WCI - WIND CHILL INDEX
   HX - HEAT INDEX
  VSB - VISIBILITY





USA.gov is the U.S. government's official web portal to all federal, state and local government web resources and services.